User: anonymous   Login
Location: Wiler
(46.4041°N, 7.7840°E)
Time: 11:38:37
(UTC+00:00)
Language:

Cosmos 2333 Rocket - Orbit

View from above orbital plane
View from above orbital plane
View from above satellite
View from above satellite

Ground track
Ground track

The orbit data is extracted from the following two-line orbital elements,

1 24298U 96051B   20191.11425654 -.00000033  00000-0  82977-5 0  9992
2 24298  70.8422 224.8659 0017029 310.5654  49.3983 14.12502000229676
Epoch (UTC): 09 July 2020 02:44:31
Eccentricity: 0.0017029
inclination: 70.8422°
perigee height: 838 km
apogee height: 863 km
right ascension of ascending node: 224.8659°
argument of perigee: 310.5654°
revolutions per day: 14.12502000
mean anomaly at epoch: 49.3983°
orbit number at epoch: 22967

The dashed part of the orbit path shows where the satellite is in the earth's shadow,  

DLR